Location: Feydey
(46.3431°N, 7.0106°E)
Time: 15:26:26
(UTC+00:00)

Cosmos 192 - Pass Details

Date: 20 June 2021
Orbit: 702 x 712 km, 74.0° (Epoch: 02 August)

Event Time Altitude Azimuth Distance (km) Brightness Sun altitude
Exits shadow 22:33:47 32° 200° (SSW) 1,195 5.1 -18.9°
Maximum altitude 22:36:05 89° 110° (ESE) 713 4.3 -19.0°
Drops below altitude 10° 22:41:01 10° 22° (NNE) 2,183 7.6 -19.2°
Sets 22:43:21 0° 22° (NNE) 3,104 8.6 -19.3°
